Miscellaneous Local Product
Issued by NWS North Platte, NE

Home | Current Version | Previous Version | Text Only | Print | Product List | Glossary On
Versions: 1 2 3 4 5 6 7 8 9 10 11 12 13 14 15 16 17 18 19 20 21 22 23 24 25 26 27 28 29 30 31 32 33 34 35 36 37 38 39 40 41 42 43 44 45 46 47 48 49 50
000
AXUS43 KLBF 042210
MISLBF


WESTERN AND NORTH CENTRAL NEBRASKA HOURLY WEATHER ROUNDUP
NATIONAL WEATHER SERVICE NORTH PLATTE NE
500 PM CDT TUE AUG 04 2015

***STATIONS NOT REPORTING VARIABLES SUCH AS SKY/WEATHER OR
PRESSURE ARE PROVIDED BY THE NEBRASKA DEPARTMENT OF
ROADS...RAWS...AND APRS NETWORKS...AND ARE NOT UNDER
NATIONAL WEATHER SERVICE QUALITY CONTROL***

...OBSERVATIONS IN AND NEAR THE EASTERN PANHANDLE OF NEBRASKA...

CITY           SKY/WX    TMP DP  RH WIND       PRES   REMARKS
PINE RIDGE     PTSUNNY   81  60  48 SW8       29.97F
CHADRON        PTSUNNY   83  61  47 S16       29.94F
ALLIANCE       PTSUNNY   73  62  68 SE18      29.99F
SIDNEY         CLOUDY    74  58  57 E12       30.04F
BIG SPRINGS      N/A     70  64  81 E5          N/A
$$

...OBSERVATIONS IN NORTH CENTRAL NEBRASKA...

CITY           SKY/WX    TMP DP  RH WIND       PRES   REMARKS
THEDFORD       CLOUDY    73  63  70 SE5       29.97R
AINSWORTH      CLOUDY    76  66  69 E10       29.97S
O`NEILL        PTSUNNY   77  65  66 E10       29.97S
ORD            CLOUDY    80  66  62 SE6       29.91F
BROKEN BOW     CLOUDY    73  64  73 S6        29.92F
SPRINGVIEW       N/A     77  66  68 NE7G14      N/A
CHAMBERS         N/A     77  65  67 E8          N/A
EWING            N/A     76  66  71 E6          N/A
$$

...OBSERVATIONS IN SOUTHWEST NEBRASKA AND FAR NORTHEAST COLORADO...

CITY           SKY/WX    TMP DP  RH WIND       PRES   REMARKS
WRAY           MOCLDY    75  59  58 NE12      30.01S
HOLYOKE        FAIR      73  64  73 E7        30.01F
IMPERIAL       CLOUDY    68  60  75 CALM      29.99S
OGALLALA       CLOUDY    71  63  77 S7        29.99F
NORTH PLATTE   LGT RAIN  67  64  90 E15       29.89F
MCCOOK         CLOUDY    63  62  97 SE5       29.97S
LEXINGTON      RAIN      68  67  97 SW7       29.96R
PAXTON           N/A     68  65  92 S3          N/A
BRADY            N/A     66  64  94 CALM        N/A
CALLAWAY         N/A     67  66  96 S5          N/A
$$

...NORTH PLATTE AREA...

CITY           SKY/WX    TMP DP  RH WIND       PRES   REMARKS
AIRPORT        LGT RAIN  67  64  90 E15       29.89F
DOWNTOWN         N/A     67  64  91 CALM        N/A
SANDRIDGE        N/A     67  64  91 E3G12       N/A
HILLCREST        N/A     67  64  90 E17         N/A
$$

...SOME WEATHER OBSERVATIONS FROM AROUND THE REGION...

CITY           SKY/WX    TMP DP  RH WIND       PRES   REMARKS
DENVER         MOSUNNY   91  34  13 N18       30.04S
LARAMIE        MOSUNNY   77  45  32 W28G37    30.18F
CHEYENNE       PTSUNNY   79  47  32 W25G35    30.11F
SCOTTSBLUFF    TSTM      64  60  87 E7        30.01R FOG
RAPID CITY     PTSUNNY   85  60  42 S12G21    29.94F
PIERRE         PTSUNNY   85  56  37 E18G24    29.92F
WINNER         FAIR      84  63  49 E14       29.94F
SIOUX FALLS    CLOUDY    77  62  59 E6        29.99F
OMAHA          PTSUNNY   78  68  71 NE10      29.95R
GRAND ISLAND   CLOUDY    81  69  67 SE10      29.92F
KANSAS CITY    CLOUDY    80  69  69 SE10      29.96R
WICHITA        MOSUNNY   82  67  60 SE16      29.91F
HAYS           MOSUNNY   88  63  42 SE17G24   29.90S
LIBERAL        SUNNY     91  64  40 S10       29.91S HX  93
GOODLAND       MOSUNNY   84  60  44 NE18G30   29.98R
$$



USA.gov is the U.S. government's official web portal to all federal, state and local government web resources and services.